[[{"header":{"parameterUnit":"m.s-1","parameterCategory":1,"la1":30.2991,"la2":30.254,"lo1":-89.0895,"lo2":-89.0444,"dy":0.0017,"dx":0.0017,"nx":28,"ny":28,"refTime":"2024-06-17T09:00:00:Z","depth":0,"parameterNumber":2,"parameterNumberName":"U-component_of_WINDS"},"data":[0,0,0,0,0,0,0,0,0,0,0,0,0,0,0,0,0,0,0,0,0,0,0,0,0,0,0,0,0,0,0,0,0,0,0,0,0,0,0,0,0,0,0,0,0,0,0,0,0,0,0,0,0,0,0,0,0,0,-4.5169,-4.517,0,-4.5272,-4.5273,-4.5274,-4.5199,-4.5196,-4.5193,-4.5189,-4.5296,-4.5301,-4.5307,0,0,0,0,0,0,0,0,0,0,0,0,0,-4.491,-4.4915,-4.5169,-4.517,-4.5172,-4.5272,-4.5273,-4.5274,-4.52,-4.5196,-4.5192,-4.5188,-4.5294,-4.5301,-4.5308,0,0,0,0,0,0,0,0,0,0,0,0,0,-4.5018,-4.4917,-4.5169,-4.5146,-4.5145,-4.5271,-4.5273,-4.5275,-4.5201,-4.5196,-4.5191,-4.5186,-4.5291,-4.53,-4.5309,-4.5463,0,0,-4.5336,-4.534,0,0,0,0,0,0,0,0,-4.5012,-4.5028,-4.5148,-4.5148,-4.5147,-4.5218,-4.522,-4.5338,-4.5202,-4.518,-4.5189,-4.5184,-4.5274,-4.5284,-4.5314,-4.5468,-4.5472,-4.5337,-4.5342,-4.5346,-4.5348,0,0,0,0,0,0,0,-4.5005,-4.5023,-4.521,-4.515,-4.515,-4.5132,-4.5142,-4.5242,-4.5253,-4.5181,-4.5176,-4.5189,-4.5272,-4.5306,-4.5316,-4.5474,-4.5336,-4.5344,-4.535,-4.5353,-4.5759,-4.5764,0,0,0,0,0,0,-4.4999,-4.5017,-4.5206,-4.5213,-4.5066,-4.514,-4.5151,-4.52,-4.5252,-4.5255,-4.5193,-4.5185,-4.5293,-4.5306,-4.5319,-4.5503,-4.5346,-4.5354,-4.5359,-4.5754,-4.576,-4.5766,0,0,0,0,0,0,-4.4994,-4.5017,-4.5202,-4.5114,-4.5136,-4.515,-4.5205,-4.5205,-4.5238,-4.5261,-4.5263,-4.5225,-4.5289,-4.5307,-4.5428,-4.5505,-4.5358,-4.5366,-4.5747,-4.5756,-4.5763,-4.5871,0,0,0,0,0,0,-4.4987,-4.5015,-4.5074,-4.5116,-4.5141,-4.5309,-4.521,-4.521,-4.5253,-4.5243,-4.5291,-4.5294,-4.5287,-4.5415,-4.5436,-4.5515,-4.5373,-4.574,-4.5751,-4.5761,-4.586,-4.5882,-4.59,0,0,0,0,0,-4.4978,-4.51,-4.5077,-4.51,-4.5214,-4.5313,-4.5328,-4.5316,-4.526,-4.5318,-4.5334,-4.5293,-4.5494,-4.5428,-4.5451,-4.5534,-4.5735,-4.5748,-4.576,-4.5852,-4.5878,-4.59,0,0,0,0,0,0,-4.5067,-4.5105,-4.508,-4.5219,-4.5264,-4.53,-4.5374,-4.5344,-4.5406,-4.5395,-4.5378,-4.539,-4.5516,-4.5537,-4.5463,-4.5686,-4.5606,-4.5623,-4.5667,-4.5692,-4.5711,-4.5703,-4.538,0,0,0,0,0,-4.5103,-4.518,-4.5209,-4.5329,-4.5353,-4.536,-4.5403,-4.539,-4.5436,-4.5454,-4.5478,-4.5524,-4.5597,-4.5646,-4.5715,-4.5864,-4.5873,-4.5932,-4.5952,-4.5968,-4.5983,-4.6063,-4.609,-4.5807,-4.5807,-4.5807,0,0,-4.5178,-4.5208,-4.5258,-4.5348,-4.5381,-4.5461,-4.5376,-4.5465,-4.5525,-4.5468,-4.5583,-4.5603,-4.5653,-4.5788,-4.5849,-4.581,-4.6064,-4.5984,-4.5996,-4.6003,-4.6079,-4.6106,-4.6129,-4.5815,-4.5814,-4.5812,0,0,-4.5355,-4.5386,-4.5489,-4.5524,-4.5575,-4.5579,-4.5604,-4.5646,-4.5656,-4.5772,-4.5731,-4.5802,-4.5929,-4.5966,-4.6002,-4.6195,-4.6159,-4.6218,-4.6321,-4.6399,-4.6421,-4.6441,-4.6509,-4.6534,-4.6233,-4.6233,-4.6234,0,-4.5442,-4.5561,-4.5546,-4.5638,-4.5679,-4.5631,-4.5736,-4.5771,-4.5842,-4.5872,-4.5826,-4.5985,-4.6015,-4.6159,-4.6206,-4.6237,-4.6265,-4.6211,-4.6419,-4.6439,-4.6457,-4.6522,-4.6548,-4.624,-4.6239,-4.6239,-4.6238,0,-4.5664,-4.5748,-4.5825,-4.5895,-4.5945,-4.6043,-4.6043,-4.6096,-4.608,-4.6089,-4.6207,-4.6242,-4.6317,-4.6351,-4.6336,-4.6493,-4.6467,-4.6421,-4.634,-4.6491,-4.6552,-4.6576,-4.625,-4.6247,-4.6245,-4.6244,0,0,-4.5899,-4.596,-4.5989,-4.6019,-4.6073,-4.6137,-4.6233,-4.6306,-4.6352,-4.6403,-4.6483,-4.6592,-4.655,-4.6591,-4.658,-4.6649,-4.6799,-4.6595,-4.6596,-4.6631,-4.6974,-4.7007,-4.7036,-4.6777,-4.6781,-4.6785,-4.6969,0,-4.6079,-4.6245,-4.6235,-4.6392,-4.6469,-4.6426,-4.6509,-4.6551,-4.6563,-4.663,-4.6643,-4.672,-4.666,-4.6684,-4.675,-4.6767,-4.6867,-4.6753,-4.6851,-4.6855,-4.6838,-4.7068,-4.7103,-4.7276,-4.6993,-4.6997,-4.7,0,-4.631,-4.6368,-4.6532,-4.6574,-4.6606,-4.6681,-4.6748,-4.6813,-4.686,-4.6863,-4.691,-4.6888,-4.6985,-4.6903,-4.7038,-4.696,-4.7,-4.7014,-4.7021,-4.7028,-4.6936,-4.7081,-4.733,-4.7356,-4.7037,-4.7034,-4.7032,0,-4.6464,-4.6584,-4.6697,-4.6725,-4.6777,-4.6831,-4.6855,-4.6897,-4.6942,-4.7001,-4.703,-4.71,-4.7137,-4.7192,-4.719,-4.713,-4.7326,-4.7244,-4.7332,-4.7332,-4.7374,-4.7371,-4.7632,-4.7402,-4.7401,-4.7401,-4.74,0,-4.6664,-4.6766,-4.6767,-4.6837,-4.695,-4.6939,-4.7052,-4.707,-4.7108,-4.7181,-4.7149,-4.7218,-4.7211,-4.7282,-4.7281,-4.7392,-4.741,-4.7416,-4.7414,-4.7418,-4.7417,-4.7443,-4.7431,-4.7408,-4.7406,-4.7405,-4.7404,0,-4.6855,-4.686,-4.6981,-4.702,-4.7032,-4.7114,-4.7148,-4.7214,-4.7223,-4.7316,-4.7337,-4.7352,-4.7433,-4.7437,-4.753,-4.7529,-4.7665,-4.7651,-4.7649,-4.7646,-4.7734,-4.7725,-4.802,-4.8058,-4.7803,-4.7806,-4.7808,0,-4.6982,-4.7059,-4.7107,-4.7153,-4.718,-4.7256,-4.7301,-4.7293,-4.7342,-4.7402,-4.7462,-4.754,-4.7602,-4.7734,-4.7753,-4.7824,-4.7811,-4.7909,-4.7821,-4.7823,-4.7812,-4.7807,-4.7814,-4.7926,-4.7929,-4.7931,-4.7933,0,-4.7207,-4.7206,-4.7272,-4.734,-4.7395,-4.7448,-4.7497,-4.7538,-4.7536,-4.7592,-4.7675,-4.7723,-4.7818,-4.7896,-4.7966,-4.7991,-4.7963,-4.7961,-4.7985,-4.7989,-4.7985,-4.7988,-4.7695,-4.7954,-4.7951,-4.795,-4.7949,-4.7948,-4.7369,-4.7436,-4.748,-4.7555,-4.7591,-4.7638,-4.7703,-4.772,-4.7788,-4.7865,-4.7856,-4.7948,-4.7994,-4.8084,-4.8116,-4.8188,-4.8154,-4.8189,-4.8198,-4.8207,-4.8216,-4.7974,-4.8201,-4.82,-4.82,-4.8199,-4.8199,0,-4.7592,-4.7618,-4.7687,-4.7757,-4.7817,-4.7784,-4.7837,-4.7889,-4.797,-4.8015,-4.8077,-4.8172,-4.8247,-4.8273,-4.8347,-4.8399,-4.8388,-4.8419,-4.8415,-4.8421,-4.8242,-4.8213,-4.8427,-4.8427,-4.8427,-4.8427,-4.8427,-4.8427,-4.7715,-4.7826,-4.783,-4.7959,-4.7984,-4.8073,-4.8106,-4.815,-4.8186,-4.8293,-4.8355,-4.8371,-4.8409,-4.8485,-4.8554,-4.8559,-4.8588,-4.8624,-4.8625,-4.8457,-4.8434,-4.8412,-4.8385,-4.8631,-4.8631,-4.8797,-4.8799,-4.88]},{"header":{"parameterUnit":"m.s-1","parameterCategory":1,"la1":30.2991,"la2":30.254,"lo1":-89.0895,"lo2":-89.0444,"dy":0.0017,"dx":0.0017,"nx":28,"ny":28,"refTime":"2024-06-17T09:00:00:Z","depth":0,"parameterNumber":3,"parameterNumberName":"V-component_of_WINDS"},"data":[0,0,0,0,0,0,0,0,0,0,0,0,0,0,0,0,0,0,0,0,0,0,0,0,0,0,0,0,0,0,0,0,0,0,0,0,0,0,0,0,0,0,0,0,0,0,0,0,0,0,0,0,0,0,0,0,0,0,3.2671,3.2672,0,3.2725,3.2725,3.2726,3.2679,3.2677,3.2675,3.2673,3.2726,3.2729,3.2732,0,0,0,0,0,0,0,0,0,0,0,0,0,3.2527,3.253,3.2671,3.2672,3.2673,3.2725,3.2726,3.2726,3.2679,3.2677,3.2674,3.2672,3.2725,3.2729,3.2733,0,0,0,0,0,0,0,0,0,0,0,0,0,3.2586,3.2531,3.2671,3.2656,3.2655,3.2725,3.2726,3.2726,3.268,3.2677,3.2674,3.2671,3.2724,3.2728,3.2733,3.2821,0,0,3.2748,3.275,0,0,0,0,0,0,0,0,3.2583,3.2591,3.2657,3.2657,3.2656,3.2692,3.2694,3.2758,3.268,3.267,3.2673,3.267,3.2717,3.2722,3.2738,3.2823,3.2825,3.2748,3.2751,3.2753,3.2754,0,0,0,0,0,0,0,3.2579,3.2589,3.2692,3.2658,3.2657,3.2645,3.265,3.2706,3.2709,3.2671,3.2668,3.2675,3.2716,3.2734,3.2739,3.2826,3.2748,3.2752,3.2755,3.2757,3.2985,3.2988,0,0,0,0,0,0,3.2576,3.2586,3.2691,3.2694,3.2611,3.265,3.2656,3.2683,3.2708,3.2709,3.2677,3.2672,3.2727,3.2734,3.2741,3.2844,3.2753,3.2758,3.276,3.2982,3.2985,3.2989,0,0,0,0,0,0,3.2573,3.2586,3.2689,3.2639,3.2651,3.2656,3.2687,3.2686,3.2704,3.2713,3.2713,3.2695,3.2725,3.2734,3.2801,3.2845,3.276,3.2764,3.2978,3.2983,3.2987,3.3052,0,0,0,0,0,0,3.2569,3.2585,3.2619,3.264,3.2654,3.2749,3.269,3.2689,3.2713,3.2707,3.273,3.2731,3.2724,3.2794,3.2806,3.2851,3.2768,3.2974,3.298,3.2986,3.3046,3.3059,3.3069,0,0,0,0,0,3.2564,3.2635,3.2621,3.2634,3.2696,3.2751,3.2759,3.275,3.2716,3.275,3.2756,3.273,3.2839,3.2802,3.2814,3.2861,3.2971,3.2978,3.2985,3.3041,3.3056,3.3069,0,0,0,0,0,0,3.2618,3.2637,3.2622,3.2702,3.2725,3.2743,3.2785,3.2766,3.2799,3.2792,3.2779,3.2785,3.2855,3.2865,3.2823,3.2947,3.29,3.291,3.2938,3.2952,3.2964,3.2959,3.2772,0,0,0,0,0,3.2639,3.2683,3.2697,3.2766,3.2779,3.278,3.2804,3.2795,3.2818,3.2828,3.2839,3.2862,3.2901,3.2928,3.2964,3.3048,3.3052,3.3086,3.3098,3.3108,3.3116,3.316,3.3175,3.3012,3.3012,3.3012,0,0,3.2683,3.2699,3.2727,3.2777,3.2794,3.2839,3.2789,3.2838,3.2871,3.2835,3.2899,3.2908,3.2933,3.3008,3.3042,3.3019,3.3162,3.3117,3.3124,3.3127,3.3169,3.3184,3.3198,3.3017,3.3016,3.3015,0,0,3.2786,3.2803,3.2862,3.288,3.2907,3.2908,3.2922,3.2943,3.2948,3.3012,3.2986,3.3025,3.3093,3.3112,3.3131,3.3242,3.3219,3.3254,3.3314,3.3357,3.337,3.3381,3.3419,3.3433,3.3263,3.3263,3.3263,0,3.2837,3.2904,3.2894,3.2946,3.2968,3.2939,3.2998,3.3016,3.3054,3.3069,3.3043,3.3128,3.3143,3.3222,3.3249,3.3266,3.3281,3.325,3.3369,3.338,3.339,3.3427,3.3441,3.3267,3.3266,3.3266,3.3266,0,3.2964,3.3011,3.3056,3.3093,3.3121,3.3176,3.3174,3.3203,3.3192,3.3195,3.3261,3.3278,3.3317,3.3336,3.3326,3.3414,3.3398,3.3371,3.3323,3.341,3.3444,3.3458,3.3273,3.3271,3.327,3.3269,0,0,3.3101,3.3133,3.3149,3.3166,3.3194,3.3229,3.3283,3.3323,3.3347,3.3375,3.3419,3.3478,3.3453,3.3474,3.3466,3.3504,3.3589,3.3471,3.3472,3.3491,3.3686,3.3705,3.3721,3.3575,3.3578,3.358,3.3683,0,3.3203,3.3297,3.329,3.3378,3.3421,3.3394,3.3441,3.3463,3.3468,3.3504,3.3509,3.3551,3.3516,3.3528,3.3565,3.3571,3.3628,3.3564,3.3615,3.3616,3.3607,3.3739,3.376,3.3856,3.3697,3.3699,3.3701,0,3.3335,3.3367,3.346,3.3481,3.3499,3.3541,3.3576,3.3612,3.3637,3.3637,3.3662,3.3647,3.3701,3.3653,3.3726,3.3683,3.3704,3.371,3.3713,3.3716,3.3662,3.3744,3.3887,3.3901,3.3722,3.372,3.3718,0,3.3423,3.349,3.3554,3.3569,3.3596,3.3626,3.3639,3.366,3.3685,3.3716,3.3731,3.3768,3.3788,3.3817,3.3812,3.3778,3.3887,3.3839,3.3888,3.3888,3.391,3.3908,3.4057,3.3927,3.3926,3.3926,3.3926,0,3.3537,3.3595,3.3594,3.3633,3.3696,3.3688,3.3751,3.376,3.3779,3.3819,3.3799,3.3837,3.383,3.3867,3.3864,3.3925,3.3934,3.3936,3.3934,3.3936,3.3936,3.3948,3.3941,3.393,3.3929,3.3928,3.3928,0,3.3646,3.3648,3.3715,3.3736,3.3742,3.3788,3.3805,3.3842,3.3845,3.3896,3.3908,3.3913,3.3956,3.3956,3.4005,3.4003,3.4076,3.4068,3.4068,3.4066,3.4114,3.4109,3.4274,3.4295,3.4153,3.4154,3.4155,0,3.3718,3.3761,3.3787,3.3812,3.3827,3.3868,3.3893,3.3887,3.3913,3.3945,3.3978,3.4019,3.4052,3.4122,3.413,3.4168,3.4159,3.4214,3.4164,3.4165,3.4158,3.4154,3.4158,3.4223,3.4225,3.4226,3.4227,0,3.3844,3.3843,3.388,3.3917,3.3948,3.3976,3.4003,3.4025,3.4022,3.4053,3.4097,3.4123,3.4173,3.4214,3.425,3.4263,3.4244,3.4243,3.4256,3.4258,3.4256,3.4256,3.4093,3.4239,3.4238,3.4237,3.4236,3.4236,3.3936,3.3973,3.3996,3.4038,3.4058,3.4083,3.4118,3.4127,3.4164,3.4205,3.4199,3.4248,3.4272,3.4318,3.4334,3.4372,3.4352,3.4372,3.4376,3.4381,3.4385,3.4252,3.4379,3.4379,3.4378,3.4378,3.4378,0,3.406,3.4074,3.4113,3.4151,3.4183,3.4165,3.4193,3.4221,3.4265,3.4289,3.4322,3.4372,3.4412,3.4424,3.4463,3.4491,3.4483,3.4501,3.4498,3.4501,3.4401,3.4386,3.4506,3.4506,3.4506,3.4506,3.4506,3.4506,3.4128,3.419,3.4192,3.4263,3.4277,3.4325,3.4343,3.4366,3.4385,3.4442,3.4476,3.4483,3.4502,3.4542,3.4578,3.458,3.4594,3.4615,3.4614,3.4521,3.4508,3.4495,3.448,3.4619,3.4619,3.471,3.4711,3.4712]}]]